Rogers, AR

3:35 PM CDT on May 24, 2017 (GMT -0500)
Rogers Municipal-Carter

Weather History for KROG - July, 2013

Change the Weather History Date:

Wednesday, July 31, 2013

  Actual Average Record
Temperature  
Mean Temperature 78 °F -  
Max Temperature 87 °F 85 °F 100 °F (2011)
Min Temperature 69 °F 66 °F 59 °F (2004)
Cooling Degree Days 13    
Growing Degree Days 28 (Base 50)    
Moisture  
Dew Point 70 °F    
Average Humidity 71    
Maximum Humidity 100    
Minimum Humidity 57    
Precipitation  
Precipitation 0.00 in - - ()
Sea Level Pressure  
Sea Level Pressure 30.08 in    
Wind  
Wind Speed 4 mph (North)    
Max Wind Speed 12 mph    
Max Gust Speed 17 mph    
Visibility 9 miles    
Events      
Averages and records for this station are not official NWS values.
T = Trace of Precipitation, MM = Missing Value Source: NWS Daily Summary

Daily Weather History Graph

Daily Weather History Graph

Search for Another Location

Airport or City:

Trip Planner

Search our weather history database for the weather conditions in past years. The results will help you decide how hot, cold, wet, or windy it might be!

Date:

Astronomy

Jul. 31, 2013 Rise Set
Actual Time 6:22 AM CDT 8:22 PM CDT
Civil Twilight 5:53 AM CDT 8:51 PM CDT
Nautical Twilight 5:19 AM CDT 9:25 PM CDT
Astronomical Twilight 4:41 AM CDT 10:02 PM CDT
Moon 1:18 AM CDT (7/31) 3:39 PM CDT (7/31)
Length of Visible Light 14h 57m
Length of Day
14h 00m
Waning Crescent, 31% of the Moon is Illuminated
Jul 31
Waning Crescent
Aug 6
New
Aug 14
First Quarter
Aug 20
Full
Aug 28
Last Quarter

Hourly Weather History & Observations

Time (CDT) Temp. Heat Index Dew Point Humidity Pressure Visibility Wind Dir Wind Speed Gust Speed Precip Events Conditions
5:33 AM 73.4 °F - 69.8 °F 88% 30.05 in 5.0 mi South 4.6 mph - N/A   Clear
5:57 AM 73.4 °F - 68.0 °F 83% 30.06 in 5.0 mi South 4.6 mph - N/A   Clear
6:57 AM 69.8 °F - 69.8 °F 100% 30.09 in 5.0 mi Calm Calm - N/A   Mostly Cloudy
7:53 AM 77.0 °F - 69.8 °F 78% 30.09 in 7.0 mi Calm Calm - N/A   Scattered Clouds
8:57 AM 82.4 °F 87.2 °F 71.6 °F 70% 30.09 in 10.0 mi Calm Calm - N/A   Clear
9:53 AM 84.2 °F 89.6 °F 71.6 °F 66% 30.09 in 10.0 mi Calm Calm - N/A   Scattered Clouds
10:21 AM 82.4 °F 87.2 °F 71.6 °F 70% 30.09 in 10.0 mi Calm Calm - N/A   Mostly Cloudy
10:55 AM 80.6 °F 83.9 °F 69.8 °F 70% 30.09 in 10.0 mi Calm Calm - N/A   Mostly Cloudy
11:57 AM 84.9 °F 90.1 °F 71.1 °F 63% 30.09 in 10.0 mi NNW 5.8 mph - N/A   Unknown
12:18 PM 84.2 °F 89.6 °F 71.6 °F 66% 30.09 in 10.0 mi Variable 4.6 mph - N/A   Mostly Cloudy
12:23 PM 84.2 °F 89.6 °F 71.6 °F 66% 30.09 in 10.0 mi NNW 4.6 mph - N/A   Mostly Cloudy
12:57 PM 87.1 °F 92.0 °F 70.0 °F 57% 30.08 in 10.0 mi Variable 6.9 mph - N/A   Mostly Cloudy
1:57 PM 86.0 °F 91.5 °F 71.1 °F 61% 30.08 in 10.0 mi NNW 11.5 mph 17.3 mph N/A   Scattered Clouds
2:57 PM 86.0 °F 91.5 °F 71.1 °F 61% 30.08 in 10.0 mi NNW 9.2 mph - N/A   Scattered Clouds
3:57 PM 84.2 °F 88.4 °F 69.8 °F 62% 30.07 in 10.0 mi North 10.4 mph - N/A   Partly Cloudy
3:59 PM 84.0 °F 88.4 °F 70.0 °F 63% 30.07 in 10.0 mi North 10.4 mph - N/A   Partly Cloudy
4:57 PM 84.9 °F 88.8 °F 69.1 °F 59% 30.05 in 10.0 mi North 10.4 mph - N/A   Partly Cloudy
5:57 PM 84.9 °F 89.4 °F 70.0 °F 61% 30.04 in 10.0 mi NNW 5.8 mph - N/A   Clear
6:57 PM 84.0 °F 88.4 °F 70.0 °F 63% 30.05 in 10.0 mi NNW 5.8 mph - N/A   Clear
7:57 PM 80.1 °F 83.2 °F 70.0 °F 71% 30.06 in 10.0 mi North 4.6 mph - N/A   Clear
8:57 PM 77.0 °F - 70.0 °F 79% 30.07 in 10.0 mi NNE 3.5 mph - N/A   Clear
9:57 PM 75.0 °F - 70.0 °F 84% 30.08 in 10.0 mi NNE 5.8 mph - N/A   Clear
10:57 PM 73.9 °F - 69.1 °F 85% 30.10 in 10.0 mi NNE 5.8 mph - N/A   Clear
11:57 PM 73.9 °F - 66.9 °F 79% 30.06 in 10.0 mi NE 4.6 mph - N/A   Clear